Wind_Speed
23 23 23 24 25 25 25 27 25 24 23 23 22 22 23 24 24 24 21 20 20 18 18 16 15 14 13 12 12 13 11 10 11 11 12 13 13 11 11 12 13 13 12
25 25 24 25 25 26 26 27 29 27 26 26 25 25 26 27 26 26 23 23 22 21 21 20 18 16 15 15 14 14 14 13 13 14 13 14 15 13 12 13 14 15 14
27 28 28 26 25 27 28 28 30 30 29 28 28 29 29 29 29 29 27 25 24 23 22 21 22 20 18 17 17 16 16 15 15 14 14 15 16 16 16 15 15 16 17
33 33 32 31 31 29 28 30 32 32 32 32 32 31 31 30 31 30 30 29 28 27 26 25 24 23 22 20 18 17 16 17 17 17 16 15 17 18 19 18 18 17 18
39 38 38 37 36 35 34 32 34 35 35 36 37 35 35 32 31 32 32 31 31 30 29 29 28 26 25 23 21 20 19 17 19 19 19 19 18 19 20 20 20 20 20
46 45 44 43 41 40 39 38 37 37 37 37 37 37 36 35 34 33 33 33 33 32 32 31 31 30 28 27 25 24 23 22 21 20 20 21 22 21 21 22 21 22 22
48 50 51 50 48 46 45 43 42 41 40 38 38 38 38 38 37 36 34 33 35 35 34 33 34 32 31 30 29 28 27 27 27 25 24 23 24 24 25 22 23 24 25
50 51 54 55 54 53 51 49 47 45 43 42 41 40 39 38 39 39 37 35 35 37 36 36 37 35 34 34 32 32 32 31 31 30 28 27 27 27 26 27 26 27 27
54 53 54 58 59 59 58 56 53 51 47 46 47 46 43 40 39 40 40 40 39 39 38 36 36 36 36 36 35 34 34 34 34 32 32 31 30 29 28 29 29 29 30
60 59 56 58 61 64 63 63 60 55 54 51 49 49 47 44 42 40 41 42 43 43 44 44 42 40 38 38 37 37 36 37 37 35 33 32 32 32 31 31 31 31 31
66 66 63 61 62 63 67 67 67 63 60 56 55 51 49 49 47 43 41 42 44 47 48 46 48 45 40 40 39 38 38 39 39 38 36 34 34 34 33 32 33 34 34
66 66 70 66 65 66 67 69 70 70 65 60 59 58 54 53 51 48 47 45 47 46 42 41 48 48 42 39 38 39 39 40 41 39 37 37 35 35 35 34 34 35 36
73 72 71 68 68 69 70 71 73 73 72 64 60 60 61 58 55 53 51 50 49 46 46 43 40 47 46 41 40 39 41 42 42 41 38 39 38 38 37 36 36 36 36
76 78 78 75 70 69 72 73 74 76 75 72 68 65 63 61 60 58 57 56 52 46 43 41 45 46 50 48 44 44 44 44 44 43 40 41 40 40 39 38 39 38 38
78 78 82 79 75 72 72 75 75 77 79 77 72 71 66 63 64 64 62 59 53 54 50 45 49 47 49 49 51 49 48 45 44 44 43 43 41 41 42 41 40 39 39
82 79 82 80 78 76 74 74 78 78 79 80 78 75 76 66 63 66 67 46 62 45 60 56 50 44 43 48 47 51 49 51 50 49 48 46 45 46 45 44 43 43 41
71 76 83 83 82 80 79 78 78 81 80 81 79 76 76 72 69 65 67 70 66 47 57 51 51 35 36 34 39 43 54 54 51 48 45 43 48 50 48 47 46 45 43
47 52 63 81 86 88 84 83 81 83 83 80 80 79 74 77 76 71 69 68 72 77 64 61 54 40 40 41 39 41 44 55 58 52 45 44 45 51 50 46 47 45 44
50 53 54 60 73 85 88 88 86 84 86 81 79 80 76 77 81 68 68 72 70 73 73 70 68 45 35 44 41 41 46 42 50 55 49 46 47 51 53 52 48 49 48
44 44 52 58 64 73 85 90 88 87 86 84 79 78 80 74 71 80 78 71 73 74 76 73 68 63 54 41 41 44 43 47 48 50 53 54 55 54 52 52 56 56 53
33 35 39 45 60 64 74 83 88 87 86 85 80 76 77 78 71 69 69 77 79 74 75 68 65 67 70 53 36 38 34 42 43 42 45 48 49 52 51 49 53 55 60
30 32 37 40 41 55 65 71 79 85 84 81 80 75 76 83 76 75 64 70 74 78 77 72 67 68 69 69 68 51 36 33 29 37 40 45 45 42 46 50 54 60 58
25 26 26 33 38 42 52 66 70 78 81 81 81 75 70 74 81 83 72 57 66 69 75 75 70 72 69 70 64 66 62 51 51 43 43 45 52 53 53 51 50 49 50
22 22 17 17 19 35 39 53 66 71 77 80 78 74 68 63 66 71 70 68 63 65 68 69 74 74 72 65 64 63 67 63 62 59 54 44 44 46 44 49 52 52 52
20 18 16 19 20 27 30 35 55 65 72 74 73 71 66 62 57 64 67 73 62 66 65 63 63 66 68 68 65 63 65 59 58 61 54 53 45 41 42 39 39 42 44
19 15 15 21 21 27 34 34 43 58 65 68 68 63 60 54 52 50 57 74 52 49 50 50 49 51 58 66 63 60 63 63 57 60 49 45 55 42 43 36 36 39 43
Wind_Direction
244 241 236 234 233 229 228 229 225 224 227 228 222 218 219 222 226 223 219 215 212 215 222 226 226 221 221 228 232 244 246 243 241 248 244 234 229 232 233 230 226 226 228
246 247 243 238 234 233 231 230 230 229 226 222 224 221 218 220 222 225 222 219 220 218 220 225 229 227 223 226 231 237 240 240 240 241 246 246 237 237 241 238 235 234 237
247 246 247 242 239 235 233 231 231 229 227 225 223 219 218 220 220 224 224 223 221 222 224 224 225 228 230 228 230 236 240 241 242 242 245 245 244 242 245 248 247 245 243
253 250 247 247 242 238 237 236 234 231 229 226 224 221 220 217 223 223 228 226 227 222 225 226 227 228 228 234 236 238 240 242 243 245 247 248 249 250 249 251 252 254 257
253 252 250 248 246 244 239 238 237 233 229 228 227 224 222 220 219 225 226 230 227 227 226 228 227 229 229 229 236 241 242 245 244 241 247 250 250 252 254 254 255 254 254
260 253 250 249 247 245 243 241 237 238 235 232 232 230 228 226 223 223 225 229 234 231 229 227 229 228 229 229 230 238 243 244 245 246 243 249 250 252 253 255 257 255 253
258 258 256 251 248 246 245 242 239 239 239 235 235 232 233 230 228 227 228 226 232 235 233 229 229 227 231 229 229 231 235 240 242 244 243 243 248 248 250 253 253 253 251
259 255 255 253 249 247 245 243 242 240 238 240 237 234 234 236 234 232 231 232 229 234 237 234 233 230 229 232 231 230 232 233 237 240 241 242 243 246 247 247 247 248 251
264 257 253 252 251 247 246 244 242 242 240 237 238 237 231 232 237 237 234 233 233 231 232 234 234 233 231 232 233 235 236 236 235 236 239 243 245 247 247 249 249 249 250
270 263 256 250 249 248 246 244 242 241 239 238 239 236 238 233 231 235 241 237 237 236 235 233 236 235 232 232 232 234 236 237 240 238 238 241 243 246 248 249 251 251 252
275 268 261 253 248 246 246 243 242 241 239 237 236 235 236 237 234 230 239 243 242 241 240 240 236 233 231 232 233 233 235 238 239 241 240 243 246 248 248 249 252 254 255
273 271 266 257 249 245 242 243 241 239 238 237 237 236 235 235 236 234 231 235 244 245 251 251 243 232 226 233 235 235 237 239 241 239 241 242 243 247 249 250 252 254 256
273 267 265 260 253 245 242 240 240 238 236 233 233 235 236 234 234 237 235 233 237 244 249 254 252 239 228 231 237 239 239 240 243 245 242 244 244 247 249 250 252 254 255
266 265 260 257 254 247 242 239 236 237 235 232 230 230 235 235 232 232 234 234 235 236 241 255 252 252 255 233 230 238 239 241 242 244 244 247 247 248 251 249 250 253 256
264 260 254 250 249 247 243 238 235 233 234 231 229 229 228 231 233 229 233 233 234 233 232 239 247 236 242 242 232 233 235 238 244 246 246 246 247 248 249 251 252 255 257
259 254 246 243 242 242 240 237 233 232 231 231 228 229 226 228 231 230 227 227 227 241 221 230 240 244 243 244 246 237 237 240 240 243 245 246 247 247 247 250 252 254 256
264 255 241 239 239 238 237 236 233 229 229 229 227 226 227 227 227 228 227 227 229 228 223 221 229 244 230 232 251 254 235 234 236 239 244 249 250 250 249 249 251 254 257
271 260 253 245 237 234 233 233 231 228 227 226 226 224 224 225 227 230 231 229 230 226 230 225 227 236 227 237 236 247 252 244 241 238 239 241 243 246 248 250 253 256 259
273 262 253 246 242 236 231 229 229 226 225 225 225 222 222 223 227 231 237 235 234 234 235 233 228 229 227 232 234 236 240 241 244 244 240 242 243 250 253 251 254 257 257
277 267 256 245 241 234 231 227 226 224 224 222 224 222 221 222 230 229 230 232 235 237 234 234 235 230 231 226 226 238 239 237 243 246 247 252 255 258 259 259 256 252 255
282 273 258 250 237 234 226 226 224 222 222 221 221 223 219 218 218 224 232 238 236 236 238 231 238 233 239 228 229 229 233 236 239 246 248 253 255 256 253 261 265 267 261
276 281 272 247 240 233 227 222 222 221 220 222 220 222 220 219 221 216 228 229 235 239 241 238 242 240 237 239 246 231 226 239 246 252 253 259 249 252 260 272 271 269 270
276 287 275 244 234 231 227 221 218 220 219 219 218 220 223 222 224 229 229 229 231 240 242 240 242 244 242 239 248 251 249 247 256 248 255 256 252 258 264 266 267 268 269
284 287 273 221 223 227 224 224 219 217 218 220 217 218 219 225 230 229 234 237 233 238 241 243 245 245 247 247 247 251 257 264 268 268 257 266 262 263 268 270 265 263 265
295 278 256 232 224 221 212 222 221 214 217 217 217 216 220 225 229 229 236 233 230 237 244 248 247 250 252 251 253 253 257 261 265 271 278 283 260 257 282 275 266 263 268
302 288 258 242 233 225 216 215 221 211 211 214 215 213 219 223 227 230 235 233 226 233 239 242 249 251 251 252 252 253 254 261 267 269 277 279 275 289 288 281 271 269 269
Height
5785 5787 5789 5790 5792 5792 5792 5795 5796 5798 5800 5801 5802 5805 5808 5810 5813 5815 5818 5820 5820 5822 5824 5827 5829 5830 5831 5833 5835 5837 5838 5840 5841 5842 5843 5844 5845 5846 5848 5849 5850 5851 5853
5782 5783 5784 5786 5787 5788 5789 5790 5792 5794 5796 5798 5800 5800 5804 5806 5809 5812 5815 5817 5819 5819 5822 5824 5826 5828 5830 5831 5832 5834 5836 5837 5839 5840 5842 5843 5844 5845 5847 5848 5849 5850 5851
5777 5778 5779 5781 5783 5784 5784 5786 5787 5790 5792 5793 5796 5797 5800 5803 5805 5807 5810 5813 5815 5816 5819 5820 5823 5825 5828 5830 5831 5832 5833 5835 5836 5837 5839 5841 5842 5843 5845 5846 5848 5849 5850
5773 5773 5774 5775 5777 5778 5780 5781 5782 5784 5786 5788 5790 5792 5794 5796 5801 5802 5805 5808 5810 5812 5815 5817 5820 5822 5824 5827 5829 5830 5830 5832 5833 5835 5837 5838 5840 5842 5842 5843 5845 5847 5848
5765 5767 5768 5769 5771 5772 5773 5775 5777 5777 5779 5782 5784 5786 5789 5791 5794 5797 5799 5802 5805 5808 5810 5812 5815 5818 5820 5822 5825 5827 5828 5829 5830 5831 5833 5835 5837 5839 5840 5841 5841 5844 5845
5756 5757 5759 5761 5763 5765 5767 5768 5770 5771 5773 5776 5778 5781 5784 5785 5788 5791 5794 5796 5799 5802 5805 5807 5810 5812 5814 5817 5819 5822 5824 5825 5827 5828 5829 5831 5833 5836 5837 5839 5839 5840 5841
5746 5747 5750 5752 5753 5756 5759 5761 5762 5764 5767 5769 5772 5775 5778 5781 5784 5785 5789 5791 5794 5797 5799 5801 5804 5807 5809 5812 5814 5816 5818 5820 5822 5824 5826 5827 5829 5830 5833 5835 5836 5836 5838
5733 5736 5737 5739 5743 5745 5748 5751 5754 5758 5759 5762 5765 5768 5772 5776 5778 5780 5783 5785 5788 5791 5793 5795 5797 5801 5803 5806 5808 5810 5812 5813 5816 5818 5820 5822 5824 5825 5827 5829 5831 5832 5833
5720 5723 5725 5726 5728 5732 5736 5739 5743 5748 5752 5754 5757 5760 5763 5767 5771 5774 5777 5780 5782 5785 5786 5788 5791 5794 5796 5799 5802 5805 5807 5808 5810 5813 5815 5817 5818 5820 5822 5824 5825 5827 5827
5704 5706 5711 5713 5714 5717 5721 5726 5731 5736 5741 5745 5748 5752 5755 5759 5762 5767 5771 5774 5775 5777 5779 5780 5783 5786 5790 5792 5795 5798 5801 5802 5805 5807 5809 5811 5813 5814 5816 5818 5820 5821 5823
5684 5688 5691 5696 5700 5703 5706 5711 5717 5723 5728 5734 5738 5742 5746 5751 5755 5758 5763 5767 5769 5770 5772 5773 5774 5778 5782 5786 5789 5792 5795 5796 5798 5801 5803 5804 5808 5809 5811 5812 5814 5816 5817
5668 5669 5670 5676 5682 5687 5691 5695 5701 5707 5714 5721 5726 5732 5737 5742 5747 5751 5754 5758 5760 5762 5764 5767 5769 5770 5773 5779 5782 5785 5788 5790 5791 5794 5797 5798 5800 5803 5804 5806 5807 5809 5811
5646 5650 5652 5655 5660 5666 5673 5679 5684 5691 5698 5706 5713 5719 5726 5732 5737 5742 5745 5748 5751 5755 5758 5761 5762 5765 5766 5771 5776 5778 5781 5783 5784 5788 5791 5792 5793 5796 5798 5800 5801 5802 5805
5627 5625 5630 5634 5640 5645 5652 5660 5667 5674 5680 5688 5697 5705 5712 5720 5725 5729 5734 5738 5743 5748 5753 5748 5752 5757 5760 5762 5767 5771 5774 5775 5777 5780 5784 5785 5787 5789 5792 5792 5793 5795 5798
5599 5602 5604 5610 5616 5624 5631 5640 5648 5656 5663 5671 5680 5690 5697 5705 5711 5718 5722 5729 5733 5737 5742 5740 5740 5744 5749 5752 5756 5762 5764 5767 5770 5772 5777 5778 5779 5781 5784 5786 5787 5789 5790
5565 5572 5577 5584 5591 5600 5609 5619 5628 5637 5646 5654 5663 5673 5683 5691 5698 5704 5710 5718 5724 5723 5726 5732 5739 5739 5739 5743 5749 5753 5757 5760 5762 5765 5767 5770 5771 5772 5775 5778 5779 5781 5782
5534 5540 5548 5557 5565 5576 5587 5597 5607 5617 5627 5637 5646 5657 5668 5676 5683 5690 5696 5703 5708 5715 5720 5722 5729 5730 5733 5736 5743 5746 5748 5751 5753 5757 5759 5761 5764 5765 5766 5769 5772 5773 5774
5513 5513 5518 5527 5538 5548 5562 5574 5586 5598 5608 5618 5629 5640 5651 5661 5669 5676 5684 5690 5696 5704 5709 5714 5720 5723 5729 5731 5736 5738 5740 5743 5744 5746 5750 5753 5753 5752 5757 5761 5765 5767 5768
5499 5497 5499 5502 5512 5523 5539 5552 5564 5577 5589 5601 5611 5623 5634 5645 5656 5668 5673 5679 5685 5691 5697 5705 5712 5715 5719 5724 5728 5728 5732 5734 5735 5739 5741 5743 5746 5748 5750 5754 5757 5759 5759
5483 5481 5481 5484 5490 5501 5515 5529 5543 5557 5570 5581 5594 5606 5618 5632 5642 5653 5659 5666 5673 5681 5687 5694 5702 5708 5707 5713 5718 5722 5724 5726 5728 5730 5733 5736 5738 5739 5741 5744 5744 5746 5749
5472 5469 5468 5468 5473 5482 5492 5507 5522 5539 5549 5563 5579 5592 5603 5616 5626 5637 5647 5654 5661 5670 5676 5680 5688 5697 5698 5706 5707 5714 5716 5717 5720 5722 5725 5726 5727 5729 5731 5734 5736 5735 5736
5463 5459 5456 5456 5459 5466 5475 5489 5503 5521 5538 5553 5566 5578 5589 5600 5611 5623 5632 5640 5650 5657 5663 5670 5678 5686 5691 5695 5698 5702 5706 5709 5713 5713 5717 5719 5721 5722 5724 5725 5725 5726 5726
5455 5451 5447 5445 5450 5455 5463 5474 5488 5506 5520 5535 5548 5562 5576 5592 5600 5610 5623 5631 5638 5646 5654 5660 5666 5673 5680 5687 5691 5693 5696 5701 5701 5706 5709 5710 5713 5714 5714 5713 5714 5714 5715
5449 5446 5442 5441 5444 5449 5456 5465 5478 5491 5508 5524 5542 5558 5574 5584 5594 5602 5612 5620 5628 5636 5645 5652 5657 5664 5670 5678 5682 5685 5688 5690 5694 5696 5700 5701 5704 5705 5704 5702 5703 5703 5706
5446 5442 5440 5441 5443 5447 5451 5459 5469 5483 5501 5519 5535 5549 5565 5578 5587 5597 5603 5613 5622 5630 5638 5644 5649 5656 5662 5668 5674 5677 5679 5683 5686 5690 5690 5690 5696 5694 5696 5692 5691 5692 5694
5444 5440 5439 5438 5439 5442 5447 5454 5464 5477 5494 5513 5530 5545 5559 5570 5580 5588 5594 5606 5614 5624 5632 5637 5641 5648 5652 5658 5664 5669 5672 5674 5676 5681 5680 5684 5686 5684 5688 5685 5682 5683 5683